Location: Newton_Old_St_Pauls
(35.6750°N, 81.2580°W)
Time: 02:50:15
(UTC-05:00)

Daily predictions for brighter satellites

Satellite Brightness Start Highest point End
(mag) Time Altitude Azimuth Time Altitude Azimuth Time Altitude Azimuth
Atlas Centaur 2 3.2 04:16:09 57° SSE 04:16:09 57° SSE 04:23:51 10° ESE
Lacrosse 5 rocket 3.7 04:23:56 23° NE 04:23:56 23° NE 04:25:45 10° NE
SL-16 R/B 3.2 04:29:35 39° NNE 04:29:35 39° NNE 04:33:03 10° NNE
Cosmos 2123 Rocket 4.3 04:24:42 10° S 04:30:48 64° E 04:36:59 10° NNE
Cosmos 2061 Rocket 4.2 04:48:04 54° SSW 04:48:04 54° SSW 04:53:05 10° S
CZ-4B R/B 3.1 04:47:07 10° NNE 04:52:48 83° WNW 04:58:26 10° SSW
USA 229 DEB 4.2 04:49:12 27° NNW 04:53:17 60° NE 05:00:31 10° SE
USA 229 4.3 04:49:15 27° NNW 04:53:23 59° NE 05:00:37 10° SE
Cosmos 2297 3.7 04:54:23 52° N 04:55:51 82° ENE 05:01:34 10° SSE
Cosmos 2016 Rocket 3.8 04:56:33 64° WNW 04:57:09 69° W 05:03:10 10° S
SL-8 R/B 3.8 05:01:31 62° S 05:02:01 68° SE 05:06:46 10° ENE
Cosmos 2278 Rocket 3.9 05:05:28 18° SSW 05:05:28 18° SSW 05:07:08 10° SSW
IRS-1C Rocket 3.9 04:58:16 10° N 05:03:32 77° WNW 05:08:45 10° SSW
Cosmos 2242 Rocket 4.4 05:05:15 39° S 05:05:15 39° S 05:08:03 10° S
Meteor 2-12 Rocket 4.3 04:58:07 10° N 05:04:12 86° E 05:10:15 10° S
IDEFIX/ARIANE 42P 4.4 05:04:34 10° NE 05:09:10 31° E 05:13:44 10° SSE
Cosmos 1862 Rocket 3.4 05:12:48 66° NNW 05:13:22 79° W 05:17:48 10° S
Meteor 1-28 Rocket 3.2 05:13:15 10° SSE 05:17:00 78° ENE 05:17:47 54° N
EO 1 Del DPAF 4.2 05:21:32 10° SSE 05:25:13 46° ENE 05:28:54 10° N
Delta 2 Rocket 3.2 05:24:55 61° WSW 05:25:28 72° SSW 05:29:52 10° ESE
Cosmos 1864 Rocket 4.5 05:19:44 10° NNW 05:25:52 57° W 05:31:54 10° SSW
Landsat 4 3.5 05:23:46 10° SSE 05:27:29 87° WSW 05:28:55 36° NNW
Cosmos 1354 Rocket 3.9 05:28:31 26° NNW 05:31:23 64° WSW 05:36:32 10° S
OAO 1 Rocket 4.4 05:30:55 37° W 05:33:06 85° S 05:38:29 10° E
Okean 1-7 4.4 05:30:23 10° N 05:34:32 40° E 05:38:38 10° SSE
USA 32 3.9 05:30:30 10° SSW 05:35:40 63° W 05:40:51 10° N
Cosmos 1943 4.2 05:31:07 10° S 05:36:35 50° ESE 05:42:02 10° NNE
Hubble Space Telescope 2.2 05:35:52 22° SW 05:37:33 30° S 05:41:10 10° ESE
SKYMED 2 3.6 05:38:06 10° SSE 05:42:25 79° ENE 05:46:46 10° N
Cosmos 2233 Rocket 3.9 05:39:58 10° NNW 05:46:01 63° W 05:52:03 10° S
ATLAS 5 CENTAUR R/B 2.3 05:41:40 10° SSW 05:46:03 58° ESE 05:50:48 10° NE
Cosmos 1825 2.0 05:45:36 10° SSW 05:49:20 68° W 05:53:06 10° N
DELTA 2 R/B (1) 3.6 05:48:34 25° WNW 05:51:56 75° NNE 05:57:31 10° E
Meteor 2-3 Rocket 4.4 05:53:25 10° SW 05:58:30 32° WNW 06:03:36 10° NNW
Cosmos 2221 Rocket 3.8 05:56:05 10° N 06:00:34 77° E 06:05:03 10° S
Lacrosse 5 rocket 2.9 05:59:41 20° NW 06:00:46 21° NW 06:04:21 10° NNE
Intercosmos 25 3.3 05:57:55 10° N 06:01:22 76° W 06:06:13 10° S
Okean-O 2.9 05:58:27 10° N 06:02:41 44° WNW 06:06:53 10° SW
Meteor 1-10 Rocket 4.3 05:58:47 10° N 06:04:45 86° W 06:10:40 10° S
Genesis I 4.5 06:01:11 10° S 06:04:51 44° ESE 06:08:36 10° NE
Atlas Centaur 2 3.8 05:58:47 15° W 06:05:06 42° SSW 06:13:00 10° SE
SJ-12 4.5 06:02:30 10° NNE 06:06:35 62° E 06:10:37 10° S
SL-16 R/B 3.7 06:11:34 14° WNW 06:12:08 14° NW 06:15:05 10° NNW
Cosmos 1703 Rocket 3.8 06:08:24 10° NNW 06:12:34 44° W 06:16:41 10° SSW
Cosmos 1441 Rocket 3.4 06:10:26 10° N 06:14:12 72° E 06:17:54 10° SSE
Cosmos 1869 Rocket 3.8 06:10:23 10° SSW 06:14:31 43° W 06:18:44 10° N
Cosmos 1606 3.0 06:11:32 10° NNW 06:15:09 42° W 06:18:46 10° SSW
Cosmos 1603 4.2 06:11:22 10° SW 06:16:32 37° WNW 06:21:47 10° N
COSMOS 2441 4.4 06:14:22 10° NNE 06:19:17 88° E 06:24:09 10° SSW
NOSS 3-1 (C) 4.2 06:15:31 10° NW 06:23:20 73° WSW 06:31:51 10° SSE
SMAP 4.2 06:20:51 10° NNE 06:25:22 48° E 06:29:50 10° S
Cosmos 1891 Rocket 4.4 06:19:38 10° N 06:25:42 86° W 06:31:50 10° S
Cosmos 1782 3.5 06:23:40 10° NNW 06:27:12 31° W 06:30:42 10° SSW
COSMO-SKYMED 1 3.5 06:26:55 10° SSW 06:30:36 27° W 06:34:19 10° NW
CZ-2C R/B 2.7 06:27:16 10° N 06:32:15 50° WNW 06:37:06 10° SSW
Cosmos 1408 4.2 06:30:47 10° WSW 06:33:07 16° WNW 06:35:27 10° NW
Cosmos 2369 Rocket 2.2 06:34:15 10° NNW 06:39:50 76° WSW 06:45:24 10° SSE
Ariane Rocket 3.3 06:36:28 10° NNE 06:41:32 76° ESE 06:46:34 10° S
